Regional Weather Roundup
Issued by NWS

Home | Current Version | Previous Version | Graphics & Text | Print | Product List | Glossary Off
Versions: 1 2 3 4 5 6 7 8 9 10 11 12 13 14 15 16 17 18 19 20 21 22 23 24 25 26 27 28 29 30 31 32 33 34 35 36 37 38 39 40 41 42 43 44 45 46 47 48 49 50

682
ASUS43 KTOP 030708
RWRKS

WEATHER ROUNDUP FOR KANSAS
NATIONAL WEATHER SERVICE GOODLAND KS
200 AM CDT TUE MAY 03 2016

NOTE:  "FAIR" INDICATES FEW OR NO CLOUDS BELOW 12,000 FEET WITH NO
SIGNIFICANT WEATHER AND/OR OBSTRUCTIONS TO VISIBILITY.

KSZ001>006-013>018-027>032-041>047-030800-
NORTHWEST KANSAS

CITY           SKY/WX    TMP DP  RH WIND       PRES   REMARKS
GOODLAND       PTCLDY    47  34  60 W9        30.03F
HAYS           MOCLDY    45  34  65 S7        30.04F
HILL CITY      CLEAR     46  38  73 NW3       30.03F
RUSSELL        CLEAR     47  40  76 S10       30.03S
$$

KSZ061>065-074>080-084>089-030800-
SOUTHWEST KANSAS

CITY           SKY/WX    TMP DP  RH WIND       PRES   REMARKS
DODGE CITY     CLOUDY    47  36  65 SW9       30.07F
ELKHART          N/A     47  33  58 S9          N/A
GARDEN CITY    CLEAR     43  35  73 SW7       30.06F
GREAT BEND     CLOUDY    45  37  76 S3        30.06S
LIBERAL        CLEAR     41  32  70 SW8       30.09F
PRATT          PTCLDY    40  36  83 SW5       30.06F
$$

KSZ066>073-081>083-090>101-030800-
SOUTHEAST KANSAS

CITY           SKY/WX    TMP DP  RH WIND       PRES   REMARKS
CHANUTE        CLEAR     44  41  89 W3        30.08S
COFFEYVILLE    CLEAR     44  43  96 CALM      30.08F
HUTCHINSON     PTCLDY    41  38  89 CALM      30.06F
MEDICINE LODGE   N/A     48  40  73 S6        30.06F
NEWTON         PTCLDY    45  36  70 S6        30.09S
PARSONS        CLEAR     42  41  96 CALM      30.09S
WICHITA INTL   PTCLDY    46  40  79 S3        30.06F
WICHITA JABRA  PTCLDY    46  41  82 S5        30.07S
WINFIELD       CLEAR     44  41  89 CALM      30.21F
$$

KSZ007>012-019>026-033>040-048>060-102>105-030800-
NORTHEAST KANSAS

CITY           SKY/WX    TMP DP  RH WIND       PRES   REMARKS
CONCORDIA      PTCLDY    45  35  68 S3        30.05S
EMPORIA        PTCLDY    45  43  93 S7        30.07S
LAWRENCE       CLEAR     40  40 100 CALM      30.07S FOG
MANHATTAN      CLEAR     44  40  85 CALM      30.06S
MARYSVILLE     MOCLDY    45  43  93 S5        30.07R
OLATHE IND     CLEAR     47  43  86 CALM      30.07S
OLATHE EXE     CLEAR     45  42  89 CALM      30.07S
SALINA         PTCLDY    46  41  82 SE5       30.06S
TOPEKA BILLARD CLEAR     43  41  93 CALM      30.07S
TOPEKA FORBES  CLEAR     43  41  93 S3        30.06F
$$




USA.gov is the U.S. government's official web portal to all federal, state and local government web resources and services.